FW7700 Weather Reports


time (UTC)temp
F
wind
direction
speed
knots
gust
knots
rain 1hr
in
rain 24hr
in
rain mn
in
humidity
%
barometer
mb
20260507001354 65 155 0.0 0.9 0.00 0.25 0.25 94 1007.8
20260507000335 65 162 0.9 0.9 0.00 0.25 0.25 94 1007.1
20260506235312 65 131 0.9 1.7 0.00 0.25 0.25 95 1007.1
20260506234252 65 213 0.9 0.9 0.00 0.25 0.25 95 1006.8
20260506233230 65 143 0.0 0.9 0.00 0.25 0.25 95 1007.4
20260506232209 66 166 0.0 0.9 0.00 0.25 0.25 93 1007.1
20260506231148 66 135 0.0 0.0 0.00 0.24 0.24 92 1007.1
20260506230127 67 197 0.0 0.9 0.00 0.24 0.24 90 1006.8
20260506225106 67 148 0.0 0.0 0.00 0.24 0.24 89 1006.8
20260506224045 68 245 0.9 0.9 0.00 0.24 0.24 88 1006.4
20260506223024 67 148 0.9 0.9 0.00 0.24 0.24 87 1006.8
20260506222003 67 148 0.9 1.7 0.00 0.24 0.24 86 1007.1
20260506220942 68 151 0.0 0.9 0.00 0.24 0.24 86 1006.4
20260506215921 67 156 0.9 0.9 0.00 0.24 0.24 86 1006.4
20260506214900 68 189 1.7 1.7 0.00 0.24 0.24 85 1006.4
20260506213839 68 181 0.9 1.7 0.00 0.24 0.24 84 1006.4
20260506212818 68 211 3.5 3.5 0.00 0.24 0.24 83 1006.1
20260506211757 69 193 2.6 2.6 0.00 0.24 0.24 83 1006.4
20260506210736 70 183 1.7 2.6 0.00 0.24 0.24 81 1006.1
20260506205715 71 177 1.7 1.7 0.00 0.24 0.24 80 1005.8
20260506204654 71 249 1.7 2.6 0.00 0.24 0.24 80 1006.1
20260506203633 68 138 1.7 1.7 0.00 0.24 0.24 83 1006.1
20260506202612 69 187 1.7 1.7 0.00 0.24 0.24 82 1006.1
20260506201551 69 226 1.7 1.7 0.00 0.24 0.24 82 1005.8
20260506200530 67 169 2.6 2.6 0.00 0.24 0.24 85 1005.8
20260506195509 67 192 1.7 2.6 0.00 0.24 0.24 84 1006.1
20260506194448 68 234 1.7 3.5 0.00 0.24 0.24 84 1006.4
20260506193427 68 161 0.9 0.9 0.00 0.24 0.24 84 1006.4
20260506192406 68 169 1.7 1.7 0.00 0.24 0.24 84 1006.1
20260506191345 67 178 5.2 6.1 0.00 0.24 0.24 85 1006.4
20260506190324 67 150 1.7 2.6 0.00 0.24 0.24 85 1006.4
20260506185306 67 220 3.5 7.0 0.00 0.24 0.24 86 1006.4
20260506184242 67 275 2.6 3.5 0.00 0.24 0.24 86 1006.4
20260506183221 66 225 1.7 3.5 0.00 0.24 0.24 89 1006.4
20260506182200 65 224 2.6 3.5 0.00 0.24 0.24 91 1006.8
20260506181138 64 220 4.3 5.2 0.00 0.24 0.24 92 1006.8
20260506180118 63 187 3.5 3.5 0.00 0.24 0.24 94 1006.8
20260506175057 62 171 1.7 2.6 0.00 0.24 0.24 95 1007.1
20260506174036 62 125 1.7 1.7 0.00 0.24 0.24 94 1007.4
20260506173015 62 167 1.7 1.7 0.00 0.24 0.24 95 1007.1
20260506171954 62 216 0.9 1.7 0.00 0.24 0.24 95 1007.4
20260506170933 62 164 3.5 3.5 0.00 0.24 0.24 95 1007.1
20260506165912 62 180 3.5 6.1 0.00 0.24 0.24 96 1006.8
20260506164851 61 230 1.7 1.7 0.00 0.24 0.24 98 1007.1
20260506163830 61 202 2.6 3.5 0.00 0.24 0.24 99 1007.1
20260506162808 61 209 4.3 6.1 0.00 0.24 0.24 99 1007.1
20260506161748 61 187 3.5 5.2 0.00 0.24 0.24 99 1007.1
20260506160727 61 198 4.3 5.2 0.00 0.24 0.24 99 1007.4
20260506155706 62 149 1.7 1.7 0.00 0.24 0.24 99 1006.8
20260506154644 61 204 1.7 2.6 0.05 0.24 0.24 99 1007.1
20260506153624 61 177 1.7 2.6 0.00 0.23 0.23 99 1006.8
20260506152602 61 171 0.9 0.9 0.05 0.22 0.22 99 1007.4
20260506151542 61 210 1.7 6.1 0.00 0.21 0.21 99 1008.1
20260506150521 61 171 0.0 0.9 0.12 0.20 0.20 99 1008.1
20260506145500 61 233 3.5 3.5 0.05 0.18 0.18 98 1008.1
20260506144439 61 177 1.7 1.7 0.12 0.17 0.17 98 1008.5
20260506143418 61 163 1.7 2.6 0.00 0.15 0.15 98 1008.1
20260506142356 62 228 5.2 7.0 0.00 0.00 0.00 97 1008.1
20260506141336 61 188 1.7 1.7 0.05 0.13 0.13 97 1007.8
20260506140315 61 158 0.9 0.9 0.17 0.11 0.11 96 1007.8
20260506135254 62 169 0.9 0.9 0.12 0.08 0.08 94 1007.8
20260506134233 62 178 1.7 2.6 0.12 0.06 0.06 92 1007.8
20260506133212 62 202 1.7 1.7 0.00 0.04 0.04 91 1007.8
20260506132151 63 194 1.7 3.5 0.00 0.03 0.03 91 1007.8
20260506131129 63 156 1.7 1.7 0.05 0.03 0.03 89 1007.8
20260506130108 63 203 1.7 1.7 0.00 0.02 0.02 87 1007.8
20260506125047 63 200 3.5 6.1 0.00 0.01 0.01 86 1007.8
20260506124026 63 173 0.9 0.9 0.00 0.01 0.01 87 1008.1
20260506123006 64 267 2.6 3.5 0.00 0.01 0.01 85 1007.8
20260506121944 64 179 1.7 1.7 0.00 0.00 0.00 85 1008.5
20260506120923 64 194 4.3 5.2 0.00 0.00 0.00 85 1008.1
20260506115902 64 176 0.9 1.7 0.00 0.00 0.00 84 1008.1
20260506114841 64 171 0.9 0.9 0.00 0.00 0.00 83 1007.8
20260506113820 64 156 1.7 2.6 0.00 0.00 0.00 81 1007.8
20260506112759 65 182 0.9 0.9 0.00 0.00 0.00 80 1007.8
20260506111711 65 149 0.0 0.9 0.00 0.00 0.00 81 1007.8
20260506110650 65 209 3.5 3.5 0.00 0.00 0.00 79 1007.4
20260506105629 65 213 1.7 2.6 0.00 0.00 0.00 78 1007.4
20260506104608 65 216 1.7 2.6 0.00 0.00 0.00 77 1007.1
20260506103547 66 173 2.6 2.6 0.00 0.00 0.00 77 1007.4
20260506102526 65 193 4.3 6.1 0.00 0.00 0.00 77 1007.1
20260506101505 66 184 2.6 2.6 0.00 0.00 0.00 76 1007.1
20260506100445 66 219 3.5 5.2 0.00 0.00 0.00 76 1007.1
20260506095423 65 215 0.9 1.7 0.00 0.00 0.00 76 1006.8
20260506094402 66 171 0.0 0.9 0.00 0.00 0.00 75 1006.8
20260506093341 65 141 1.7 3.5 0.00 0.00 0.00 75 1006.8
20260506092320 65 187 1.7 1.7 0.00 0.00 0.00 75 1006.8
20260506091259 66 255 3.5 5.2 0.00 0.00 0.00 74 1007.1
20260506090239 66 158 1.7 1.7 0.00 0.00 0.00 74 1007.1
20260506085217 65 202 5.2 6.1 0.00 0.00 0.00 74 1007.1
20260506084156 65 158 0.0 0.9 0.00 0.00 0.00 73 1007.1
20260506083135 65 189 1.7 2.6 0.00 0.00 0.00 73 1007.4
20260506082114 65 209 1.7 1.7 0.00 0.00 0.00 72 1007.1
20260506081053 65 162 0.9 1.7 0.00 0.00 0.00 71 1007.1
20260506072929 65 150 0.0 0.0 0.00 0.00 0.00 70 1007.4
20260506071908 66 146 0.0 0.0 0.00 0.00 0.00 68 1007.4
20260506070847 66 146 0.0 0.0 0.00 0.00 0.00 67 1007.4
20260506061702 68 156 1.7 1.7 0.00 0.00 0.00 61 1008.1
20260506060641 68 179 0.9 1.7 0.00 0.00 0.00 61 1007.8
20260506050435 69 202 3.5 3.5 0.00 0.00 0.00 57 1008.5
20260506044353 68 170 0.9 1.7 0.00 0.00 0.00 59 1008.5
20260506043332 68 180 1.7 2.6 0.00 0.00 0.00 57 1008.8
20260506042311 68 178 0.9 1.7 0.00 0.00 0.00 58 1008.8
20260506041250 68 201 1.7 1.7 0.00 0.00 0.00 57 1008.5
20260506040229 68 153 0.0 0.0 0.00 0.00 0.00 57 1008.5
20260506035208 68 155 1.7 2.6 0.00 0.00 0.00 57 1008.5
20260506034147 69 189 2.6 3.5 0.00 0.00 0.00 56 1008.5
20260506033126 67 181 1.7 1.7 0.00 0.00 0.00 58 1008.5
20260506032105 68 205 2.6 2.6 0.00 0.00 0.00 58 1008.5
20260506031044 68 166 0.9 1.7 0.00 0.00 0.00 57 1008.5
20260506030023 69 136 0.9 0.9 0.00 0.00 0.00 56 1008.8
20260506023941 69 192 1.7 2.6 0.00 0.00 0.00 54 1008.5
20260506022920 69 142 0.0 0.9 0.00 0.00 0.00 54 1008.5
20260506021859 69 157 0.9 0.9 0.00 0.00 0.00 53 1008.5
20260506020838 70 145 0.0 0.0 0.00 0.00 0.00 52 1008.5
20260506015817 71 154 0.9 0.9 0.00 0.00 0.00 50 1008.5
20260506014756 71 149 0.0 0.0 0.00 0.00 0.00 50 1008.5
20260506013735 71 200 1.7 2.6 0.00 0.00 0.00 48 1008.5
20260506012714 72 156 0.9 1.7 0.00 0.00 0.00 48 1008.1
20260506011653 73 181 0.9 0.9 0.00 0.00 0.00 46 1007.8
20260506010632 73 174 0.9 1.7 0.00 0.00 0.00 45 1007.8
20260506005611 74 157 0.0 0.0 0.00 0.00 0.00 43 1007.8
20260506004550 75 187 1.7 2.6 0.00 0.00 0.00 39 1007.4
20260506003529 76 194 3.5 6.1 0.00 0.00 0.00 38 1007.4
20260506002508 76 246 0.9 1.7 0.00 0.00 0.00 39 1007.1
20260506001447 77 164 0.9 1.7 0.00 0.00 0.00 37 1007.4